Вернуться в каталог

KUIPER-00010

АктивенСвязьLEO
NORAD 63726·PAYLOAD·🇺🇸 United States

Запущен Apr 28, 2025 с Cape Canaveral Space Force Station

Loading…

Ближайшие Пролёты (ближайшие 24 часа)

TLE

СвежийSource: CelesTrak SupGP

Эпоха: Sep 14, 2026, 21:53 UTC

1 63726C 25088C   26257.91186343  .00001900  00000+0  24874-3 0  2578
2 63726  51.9018 326.3801 0000442  85.5590 197.7353 14.79920826    19

Отслеживайте KUIPER-00010 в реальном времени с AllMySat

Download on the App Store